Tracking 32420 objects as of 8-Dec-2025
HD Live streaming from Space Station
objects crossing your sky now

SL-16 DEB

Track SL-16 DEB now!
10-day predictions


NORAD ID: 29105
Int'l Code: 2004-021G
Perigee: 781.0 km
Apogee: 1,034.9 km
Inclination: 70.9 °
Period: 103.0 minutes
Semi major axis: 7278 km
RCS: 0.0109 m2 (small)
Launch date: June 10, 2004
Source: Commonwealth of Independent States (former USSR) (CIS)
Launch site: TYURATAM MISSILE AND SPACE COMPLEX (TTMTR)

Note: This is SATELLITE DEBRIS
Your satellite tracking list
Your tracking list is empty




NASA's NSSDC Master Catalog

Two Line Element Set (TLE):
1 29105U 04021G   25335.69766885  .00004015  00000-0  25128-2 0  9997
2 29105  70.9187 319.1631 0174380 181.1423 178.9319 13.97967814626353
Source of the keplerian elements: AFSPC